Tracking 30995 objects as of 5-Jul-2025
HD Live streaming from Space Station
objects crossing your sky now

STARLINK-30128

Track STARLINK-30128 now!
10-day predictions
STARLINK-30128 is classified as:


NORAD ID: 56832
Int'l Code: 2023-079K
Perigee: 565.3 km
Apogee: 567.2 km
Inclination: 43.0 °
Period: 95.8 minutes
Semi major axis: 6937 km
RCS: Unknown
Launch date: June 4, 2023
Source: United States (US)
Launch site: AIR FORCE EASTERN TEST RANGE (AFETR)
Your satellite tracking list
COSMOS 2213
Track 1 satellite(s)




NASA's NSSDC Master Catalog

Two Line Element Set (TLE):
1 56832U 23079K   25185.82132917 -.00000818  00000-0 -45460-4 0  9991
2 56832  43.0033 348.2242 0001344 268.0219  92.0469 15.02533071115569
Source of the keplerian elements: AFSPC